Location: ????????
(60.4333°N, 46.4710°E)
Time: 04:45:44
(UTC+00:00)

Cosmos 841 Rocket - Pass Details

Date: 25 November 2020
Orbit: 747 x 772 km, 74.0° (Epoch: 19 January)

Event Time Altitude Azimuth Distance (km) Brightness Sun altitude
Rises 15:17:29 0° 238° (WSW) 3,225 7.7 -22.5°
Reaches altitude 10° 15:19:58 10° 245° (WSW) 2,298 6.9 -22.8°
Maximum altitude 15:24:56 43° 317° (NW) 1,065 4.5 -23.4°
Enters shadow 15:27:41 24° 15° (NNE) 1,554 4.9 -23.8°
